�������l�o���
Date,Time,MP-1(��Sv/h),MP-2(��Sv/h),MP-3(��Sv/h),MP-4(��Sv/h),MP-5(��Sv/h),MP-6(��Sv/h),MP-7(��Sv/h),MP-8(��Sv/h),����,����(m/s),���J
2017/07/21,00:00,0.996,1.575,1.054,1.865,1.311,0.529,0.968,0.887,��,7.0,��
2017/07/21,00:10,0.998,1.573,1.056,1.869,1.310,0.528,0.968,0.890,��,6.6,��
2017/07/21,00:20,0.998,1.575,1.057,1.868,1.309,0.531,0.967,0.888,��,7.1,��
2017/07/21,00:30,0.995,1.576,1.054,1.868,1.311,0.529,0.966,0.888,��,6.9,��
2017/07/21,00:40,0.995,1.574,1.055,1.866,1.308,0.530,0.968,0.889,��,7.2,��
2017/07/21,00:50,0.997,1.574,1.056,1.865,1.307,0.529,0.967,0.889,��,7.4,��
2017/07/21,01:00,0.996,1.573,1.054,1.868,1.308,0.530,0.965,0.889,��,7.4,��
2017/07/21,01:10,0.996,1.576,1.056,1.868,1.308,0.529,0.968,0.889,��,7.0,��
2017/07/21,01:20,0.998,1.574,1.055,1.869,1.310,0.528,0.968,0.889,��,7.3,��
2017/07/21,01:30,0.998,1.574,1.055,1.869,1.311,0.529,0.966,0.889,��,7.8,��
2017/07/21,01:40,0.999,1.578,1.056,1.866,1.310,0.528,0.966,0.889,��,7.2,��
2017/07/21,01:50,0.997,1.577,1.057,1.870,1.309,0.529,0.965,0.890,��,7.7,��
2017/07/21,02:00,0.996,1.576,1.054,1.870,1.308,0.529,0.967,0.889,��,7.3,��
2017/07/21,02:10,0.996,1.576,1.053,1.869,1.311,0.529,0.966,0.888,��,7.0,��
2017/07/21,02:20,0.997,1.576,1.056,1.867,1.309,0.528,0.966,0.889,��,7.2,��
2017/07/21,02:30,0.995,1.575,1.055,1.867,1.309,0.529,0.966,0.888,��,6.7,��
2017/07/21,02:40,0.996,1.576,1.055,1.869,1.311,0.528,0.966,0.888,��,6.5,��
2017/07/21,02:50,0.995,1.576,1.055,1.868,1.306,0.528,0.966,0.887,��,5.8,��
2017/07/21,03:00,0.993,1.575,1.056,1.865,1.309,0.528,0.966,0.889,��,6.4,��
2017/07/21,03:10,0.995,1.575,1.055,1.865,1.310,0.530,0.964,0.888,��,6.8,��
2017/07/21,03:20,0.996,1.575,1.054,1.867,1.309,0.527,0.966,0.889,��,7.7,��
2017/07/21,03:30,0.995,1.577,1.056,1.864,1.309,0.530,0.965,0.889,��,7.3,��
2017/07/21,03:40,0.997,1.576,1.055,1.867,1.309,0.530,0.967,0.889,��,7.4,��
2017/07/21,03:50,0.996,1.574,1.055,1.866,1.307,0.529,0.966,0.889,��,7.6,��
2017/07/21,04:00,0.994,1.577,1.055,1.868,1.308,0.529,0.968,0.889,��,7.1,��
2017/07/21,04:10,0.996,1.572,1.053,1.867,1.309,0.529,0.967,0.891,��,7.5,��
2017/07/21,04:20,0.997,1.577,1.056,1.868,1.307,0.529,0.965,0.889,��,8.0,��
2017/07/21,04:30,0.995,1.575,1.055,1.871,1.308,0.528,0.967,0.890,��,6.5,��
2017/07/21,04:40,0.995,1.575,1.054,1.869,1.310,0.529,0.965,0.890,��,6.6,��
2017/07/21,04:50,0.994,1.574,1.054,1.868,1.310,0.529,0.966,0.890,��,6.3,��
2017/07/21,05:00,0.994,1.573,1.053,1.864,1.308,0.529,0.966,0.889,��,6.8,��
2017/07/21,05:10,0.995,1.574,1.056,1.866,1.309,0.530,0.966,0.889,��쓌,7.3,��
2017/07/21,05:20,0.995,1.576,1.054,1.866,1.306,0.529,0.965,0.887,��,8.0,��
2017/07/21,05:30,0.994,1.573,1.057,1.866,1.308,0.529,0.966,0.889,��,7.8,��
2017/07/21,05:40,0.996,1.575,1.055,1.866,1.307,0.529,0.965,0.890,��,8.2,��
2017/07/21,05:50,0.996,1.573,1.054,1.866,1.309,0.528,0.966,0.891,��,7.3,��
2017/07/21,06:00,0.995,1.572,1.055,1.866,1.305,0.530,0.967,0.888,��,7.5,��
2017/07/21,06:10,0.994,1.573,1.055,1.867,1.309,0.528,0.966,0.890,��,8.9,��
2017/07/21,06:20,0.994,1.573,1.049,1.869,1.308,0.529,0.967,0.890,��,7.8,��
2017/07/21,06:30,0.996,1.573,1.052,1.867,1.306,0.529,0.968,0.890,��,7.5,��
2017/07/21,06:40,0.994,1.573,1.053,1.869,1.308,0.528,0.968,0.889,��,6.8,��
2017/07/21,06:50,0.997,1.574,1.050,1.867,1.307,0.530,0.964,0.891,��,6.6,��
2017/07/21,07:00,0.994,1.578,1.050,1.869,1.310,0.528,0.968,0.890,��,6.7,��
2017/07/21,07:10,0.996,1.574,1.052,1.870,1.309,0.529,0.968,0.890,��,9.3,��
2017/07/21,07:20,0.996,1.576,1.053,1.871,1.309,0.530,0.968,0.890,��,8.2,��
2017/07/21,07:30,0.994,1.574,1.052,1.871,1.306,0.530,0.969,0.891,��,7.9,��
2017/07/21,07:40,0.995,1.575,1.055,1.868,1.309,0.529,0.968,0.890,��,8.1,��
2017/07/21,07:50,0.995,1.575,1.056,1.869,1.308,0.530,0.967,0.888,��,8.1,��
2017/07/21,08:00,0.995,1.575,1.054,1.867,1.309,0.530,0.967,0.890,��,8.4,��
2017/07/21,08:10,0.997,1.574,1.054,1.869,1.310,0.531,0.968,0.886,��,8.1,��
2017/07/21,08:20,0.995,1.575,1.054,1.873,1.307,0.532,0.967,0.886,��,7.1,��
2017/07/21,08:30,0.997,1.578,1.054,1.872,1.308,0.531,0.970,0.886,��,7.0,��
2017/07/21,08:40,0.996,1.578,1.055,1.871,1.309,0.531,0.969,0.887,��,7.5,��
2017/07/21,08:50,0.996,1.576,1.053,1.870,1.310,0.531,0.968,0.888,��,8.8,��
2017/07/21,09:00,0.999,1.579,1.053,1.873,1.312,0.531,0.968,0.888,��,9.0,��
2017/07/21,09:10,0.997,1.580,1.057,1.873,1.310,0.531,0.969,0.887,��,9.7,��
2017/07/21,09:20,1.001,1.575,1.055,1.873,1.313,0.529,0.968,0.889,��,10.2,��
2017/07/21,09:30,0.997,1.580,1.056,1.873,1.312,0.530,0.969,0.888,��,10.3,��
2017/07/21,09:40,1.001,1.579,1.056,1.868,1.312,0.530,0.969,0.888,��,10.5,��
2017/07/21,09:50,1.000,1.580,1.055,1.872,1.315,0.529,0.968,0.888,��,10.7,��
2017/07/21,10:00,1.000,1.581,1.054,1.871,1.315,0.530,0.969,0.888,��,10.2,��
2017/07/21,10:10,1.001,1.585,1.060,1.872,1.315,0.530,0.967,0.889,��,8.7,��
2017/07/21,10:20,1.000,1.582,1.059,1.873,1.315,0.529,0.969,0.889,��,8.7,��
2017/07/21,10:30,1.000,1.582,1.057,1.874,1.316,0.530,0.968,0.887,��,7.9,��
2017/07/21,10:40,1.000,1.568,1.054,1.874,1.315,0.530,0.971,0.890,��,9.6,��
2017/07/21,10:50,1.000,1.576,1.057,1.876,1.320,0.530,0.971,0.889,��,9.5,��
2017/07/21,11:00,0.999,1.571,1.059,1.874,1.318,0.530,0.969,0.888,��,10.2,��
2017/07/21,11:10,1.001,1.575,1.057,1.872,1.318,0.532,0.970,0.887,��,9.9,��
2017/07/21,11:20,1.001,1.572,1.058,1.876,1.321,0.530,0.968,0.889,��,10.2,��
2017/07/21,11:30,1.001,1.577,1.057,1.873,1.321,0.531,0.970,0.889,��,11.1,��
2017/07/21,11:40,1.003,1.584,1.059,1.875,1.320,0.529,0.969,0.888,��,11.8,��
2017/07/21,11:50,1.003,1.585,1.059,1.873,1.320,0.531,0.970,0.889,��,11.6,��
2017/07/21,12:00,1.001,1.585,1.060,1.876,1.322,0.530,0.969,0.889,��쓌,12.7,��
2017/07/21,12:10,1.003,1.589,1.063,1.877,1.321,0.531,0.970,0.890,��쓌,11.4,��
2017/07/21,12:20,1.006,1.592,1.061,1.877,1.321,0.530,0.971,0.887,��쓌,12.7,��
2017/07/21,12:30,1.001,1.588,1.060,1.876,1.324,0.531,0.969,0.890,��,12.5,��
2017/07/21,12:40,1.002,1.588,1.060,1.880,1.325,0.530,0.968,0.889,��,13.0,��
2017/07/21,12:50,1.003,1.586,1.062,1.880,1.325,0.529,0.970,0.890,��,14.2,��
2017/07/21,13:00,1.002,1.585,1.060,1.877,1.322,0.531,0.972,0.891,��,11.6,��
2017/07/21,13:10,1.004,1.590,1.062,1.879,1.326,0.531,0.971,0.892,��,9.7,��
2017/07/21,13:20,1.005,1.589,1.063,1.878,1.326,0.533,0.972,0.891,��,9.1,��
2017/07/21,13:30,1.006,1.592,1.064,1.879,1.326,0.532,0.969,0.892,��,11.1,��
2017/07/21,13:40,1.007,1.588,1.062,1.878,1.327,0.533,0.971,0.891,��,11.3,��
2017/07/21,13:50,1.005,1.590,1.061,1.879,1.326,0.531,0.972,0.892,��쓌,12.0,��
2017/07/21,14:00,1.005,1.588,1.063,1.881,1.326,0.531,0.972,0.892,��,11.6,��
2017/07/21,14:10,1.005,1.592,1.066,1.882,1.327,0.531,0.972,0.890,��,11.4,��
2017/07/21,14:20,1.006,1.589,1.067,1.883,1.326,0.532,0.972,0.891,��,9.4,��
2017/07/21,14:30,1.003,1.590,1.065,1.882,1.328,0.532,0.976,0.891,��,8.9,��
2017/07/21,14:40,1.005,1.592,1.065,1.884,1.328,0.531,0.975,0.891,��,10.4,��
2017/07/21,14:50,1.005,1.593,1.067,1.883,1.329,0.530,0.974,0.892,��,8.6,��
2017/07/21,15:00,1.007,1.593,1.067,1.880,1.328,0.530,0.976,0.893,��,10.0,��
2017/07/21,15:10,1.005,1.592,1.067,1.881,1.330,0.531,0.975,0.891,��,12.2,��
2017/07/21,15:20,1.006,1.593,1.068,1.887,1.328,0.530,0.974,0.892,��,9.8,��
2017/07/21,15:30,1.005,1.594,1.066,1.885,1.331,0.531,0.975,0.894,��,7.4,��
2017/07/21,15:40,1.006,1.594,1.066,1.886,1.330,0.529,0.975,0.890,��,7.8,��
2017/07/21,15:50,1.007,1.591,1.067,1.889,1.329,0.531,0.974,0.892,��,9.6,��
2017/07/21,16:00,1.008,1.594,1.069,1.888,1.330,0.531,0.973,0.893,��,9.0,��
2017/07/21,16:10,1.007,1.592,1.065,1.888,1.328,0.531,0.974,0.893,��,7.1,��
2017/07/21,16:20,1.006,1.593,1.066,1.887,1.329,0.530,0.973,0.893,��,7.2,��
2017/07/21,16:30,1.007,1.591,1.067,1.887,1.329,0.530,0.974,0.891,��,6.5,��
2017/07/21,16:40,1.008,1.592,1.067,1.890,1.329,0.530,0.974,0.892,��,7.8,��
2017/07/21,16:50,1.007,1.591,1.070,1.891,1.331,0.531,0.973,0.891,��,8.6,��
2017/07/21,17:00,1.008,1.593,1.066,1.888,1.329,0.532,0.972,0.891,��,8.0,��
2017/07/21,17:10,1.009,1.592,1.069,1.888,1.332,0.532,0.973,0.892,��,8.1,��
2017/07/21,17:20,1.006,1.595,1.068,1.887,1.327,0.533,0.972,0.894,��,8.3,��
2017/07/21,17:30,1.005,1.594,1.068,1.890,1.330,0.533,0.972,0.893,��,7.8,��
2017/07/21,17:40,1.007,1.594,1.067,1.887,1.330,0.531,0.974,0.892,��,8.1,��
2017/07/21,17:50,1.007,1.596,1.068,1.891,1.328,0.532,0.972,0.892,��,7.0,��
2017/07/21,18:00,1.005,1.595,1.065,1.890,1.326,0.532,0.971,0.893,��,8.3,��
2017/07/21,18:10,1.006,1.592,1.069,1.889,1.330,0.532,0.972,0.892,��,6.8,��
2017/07/21,18:20,1.006,1.592,1.067,1.889,1.327,0.531,0.973,0.890,��,8.5,��
2017/07/21,18:30,1.006,1.591,1.067,1.889,1.329,0.532,0.971,0.891,��,9.0,��
2017/07/21,18:40,1.007,1.592,1.067,1.888,1.327,0.531,0.970,0.892,��,8.3,��
2017/07/21,18:50,1.007,1.593,1.064,1.888,1.328,0.530,0.972,0.891,��,9.3,��
2017/07/21,19:00,1.005,1.594,1.066,1.888,1.329,0.531,0.972,0.891,��,9.0,��
2017/07/21,19:10,1.004,1.593,1.067,1.886,1.330,0.531,0.971,0.893,��,8.9,��
2017/07/21,19:20,1.005,1.591,1.066,1.884,1.330,0.532,0.970,0.893,��,9.6,��
2017/07/21,19:30,1.006,1.592,1.067,1.883,1.332,0.530,0.972,0.891,��,9.8,��
2017/07/21,19:40,1.007,1.596,1.065,1.886,1.330,0.532,0.971,0.892,��,8.5,��
2017/07/21,19:50,1.004,1.596,1.068,1.885,1.328,0.532,0.973,0.891,��,9.9,��
2017/07/21,20:00,1.004,1.596,1.066,1.883,1.327,0.532,0.971,0.892,��,8.7,��
2017/07/21,20:10,1.003,1.597,1.068,1.882,1.330,0.533,0.970,0.893,��,9.2,��
2017/07/21,20:20,1.005,1.596,1.068,1.888,1.330,0.531,0.973,0.892,��,8.9,��
2017/07/21,20:30,1.006,1.593,1.069,1.889,1.329,0.532,0.972,0.892,��,8.3,��
2017/07/21,20:40,1.005,1.593,1.069,1.887,1.328,0.532,0.969,0.893,��,8.7,��
2017/07/21,20:50,1.004,1.593,1.068,1.888,1.329,0.532,0.972,0.893,��,7.7,��
2017/07/21,21:00,1.005,1.592,1.071,1.888,1.329,0.532,0.971,0.892,��,8.0,��
2017/07/21,21:10,1.003,1.595,1.069,1.888,1.331,0.532,0.971,0.893,��,7.1,��
2017/07/21,21:20,1.005,1.595,1.067,1.885,1.328,0.531,0.971,0.890,��,7.4,��
2017/07/21,21:30,1.003,1.595,1.067,1.886,1.329,0.532,0.972,0.891,��,7.6,��
2017/07/21,21:40,1.006,1.593,1.067,1.887,1.329,0.532,0.972,0.893,��,6.4,��
2017/07/21,21:50,1.004,1.592,1.068,1.885,1.331,0.531,0.972,0.892,��,7.0,��
2017/07/21,22:00,1.005,1.594,1.067,1.888,1.330,0.532,0.972,0.890,��,6.2,��
2017/07/21,22:10,1.006,1.594,1.067,1.888,1.329,0.532,0.971,0.893,��,6.8,��
2017/07/21,22:20,1.004,1.592,1.067,1.887,1.332,0.531,0.971,0.892,��,6.8,��
2017/07/21,22:30,1.002,1.592,1.066,1.890,1.330,0.531,0.969,0.890,��,5.7,��
2017/07/21,22:40,1.004,1.592,1.069,1.885,1.329,0.533,0.971,0.895,��,5.7,��
2017/07/21,22:50,1.004,1.590,1.067,1.887,1.329,0.532,0.971,0.893,��,6.6,��
2017/07/21,23:00,1.002,1.592,1.066,1.888,1.327,0.531,0.972,0.892,��,6.7,��
2017/07/21,23:10,1.003,1.592,1.068,1.885,1.328,0.532,0.971,0.890,��,8.1,��
2017/07/21,23:20,1.002,1.594,1.066,1.885,1.327,0.532,0.973,0.892,��,8.6,��
2017/07/21,23:30,1.001,1.594,1.067,1.888,1.328,0.530,0.973,0.892,��,8.3,��
2017/07/21,23:40,1.002,1.594,1.070,1.886,1.326,0.532,0.972,0.891,��,8.3,��
2017/07/21,23:50,1.004,1.594,1.067,1.888,1.328,0.531,0.972,0.893,��,8.1,��
